Tracking 25648 objects as of 16-May-2022
HD Live streaming from Space Station
objects crossing your sky now

INTELSAT 502

Track INTELSAT 502 now!
INTELSAT 502 is classified as:


NORAD ID: 12089
Int'l Code: 1980-098A
Perigee: 36,158.3 km
Apogee: 36,211.8 km
Inclination: 13.4 °
Period: 1,456.1 minutes
Semi major axis: 42556 km
RCS: 13.5237 m2 (large)
Launch date: December 6, 1980
Source: International Telecommunications Satellite Organization (ITSO)
Launch site: AIR FORCE EASTERN TEST RANGE (AFETR)
aabbcc
Your satellite tracking list
Your tracking list is empty




NASA's NSSDC Master Catalog

Two Line Element Set (TLE):
1 12089U 80098A   22134.28190448 -.00000105  00000-0  00000-0 0  9990
2 12089  13.3724 337.5835 0006281 307.7018  66.1624  0.98892039118945
Source of the keplerian elements: AFSPC